User: anonymous   Login
Location: Pasadena, ca
(34.1243°N, 118.1037°W)
Time: 00:08:42
(UTC-08:00)
Language:

LilacSat-2 - Orbit

View from above orbital plane
View from above orbital plane
View from above satellite
View from above satellite

Ground track
Ground track

The orbit data is extracted from the following two-line orbital elements,

1 40908U 15049K   18054.55892579 +.00000406 +00000-0 +26296-4 0  9997
2 40908 097.4676 059.3639 0017603 065.0388 295.2669 15.13412859134189
Epoch (UTC): 23 February 2018 13:24:51
Eccentricity: 0.0017603
inclination: 97.4676°
perigee height: 513 km
apogee height: 538 km
right ascension of ascending node: 59.3639°
argument of perigee: 65.0388°
revolutions per day: 15.13412859
mean anomaly at epoch: 295.2669°
orbit number at epoch: 13418

The dashed part of the orbit path shows where the satellite is in the earth's shadow,  

DLR